Weather in Dashtabad

Uzbekistan     40°07′41″N   68°29′25″E
temp.,
°C
wind,
m/s
gust,
m/s
humid.,
%
clouds,
%
prec.,
mm/h
press.,
hPa
HPBL,
m
13 may, thu
thu1323:00+20n23500 0.0 101256
02:00+18wnw33510 0.0 101229
05:00+16w35594 0.0 101280
08:00+19w443614 0.0 1013496
11:00+23wnw22280 0.0 1012974
14:00+27nne11250 0.0 10111513
17:00+28nw12230 0.0 10101876
20:00+24sw34300 0.0 101141
14 may, fri
fri1423:00+20wnw34380 0.0 101274
02:00+17wsw58390 0.0 1012167
05:00+15sw58380 0.0 1012147
08:00+19wsw56280 0.0 1013542
11:00+24w44230 0.0 1012972
14:00+28wnw11210 0.0 10111356
17:00+29wnw02210 0.0 10101585
20:00+24ssw45290 0.0 101058
15 may, sat
sat1523:00+20w44400 0.0 101071
02:00+18wsw59470 0.0 1010195
05:00+16sw59480 0.0 1011191
08:00+20w56360 0.0 1012592
11:00+24wnw22260 0.0 1011864
14:00+28nw11220 0.0 10091244
17:00+30w21190 0.0 10081509
20:00+25w23260 0.0 100816
16 may, sun
sun1623:00+22w11320 0.0 100812
02:00+20w33380 0.0 100833
05:00+17wsw45490 0.0 100968
08:00+22w22340 0.0 1010264
11:00+28nnw11250 0.0 1010777
14:00+32nw23190 0.0 10081753
17:00+33nnw23130 0.0 10072533
20:00+26e22260 0.0 100717
17 may, mon
mon1723:00+24se11330 0.0 100812
02:00+22ssw23350 0.0 100715
05:00+21wsw22380 0.0 100912
08:00+25w22280 0.0 1010238
11:00+31ene11220 0.0 1009877
14:00+34nw23132 0.0 10072896
17:00+34nw1213100 0.0 10062866
20:00+29n3319100 0.0 100624